{"data":{"norad_id":64032,"intl_designator":"2025-102L","name":"STARLINK-34019","alt_names":[],"object_type":"PAYLOAD","status":"ACTIVE","operator":null,"country":"US","launch_date":"2025-05-16","launch_site_code":"AFWTR","launch_vehicle":null,"mission":null,"orbit_class":"UNKNOWN","rcs_meters":null,"size_class":null,"mass_kg":null,"dimensions":null,"purposes":["comms"],"wikipedia_slug":null,"has_3d_model":false,"image_url":null,"decayed_at":null,"tle_current":{"epoch":"2026-09-20T22:15:27.756576Z","epoch_age_seconds":106651,"freshness":"FRESH","line1":"1 64032U 25102L   26263.92740459  .00009966  00000+0  35062-3 0  9992","line2":"2 64032  69.9999 339.9249 0003519 268.1417  91.9355 15.29585091 75261","mean_motion":15.29585091,"eccentricity":0.0003519,"inclination_deg":69.9999,"raan_deg":339.9249,"arg_perigee_deg":268.1417,"mean_anomaly_deg":91.9355,"bstar":0.00035062,"rev_number":7526,"period_min":94.143177027083,"perigee_km":474.63935100537,"apogee_km":479.46403280674,"semimajor_km":6855.1886919061,"source":"CELESTRAK","updated_at":"2026-09-21T09:00:35.187870Z"}}}